{"data":{"norad_id":62821,"intl_designator":"2025-018R","name":"STARLINK-32782","alt_names":[],"object_type":"PAYLOAD","status":"ACTIVE","operator":null,"country":"US","launch_date":"2025-01-24","launch_site_code":"AFWTR","launch_vehicle":null,"mission":null,"orbit_class":"UNKNOWN","rcs_meters":null,"size_class":null,"mass_kg":null,"dimensions":null,"purposes":["comms"],"wikipedia_slug":null,"has_3d_model":false,"image_url":null,"decayed_at":null,"tle_current":{"epoch":"2026-05-25T04:41:38.257152Z","epoch_age_seconds":54355,"freshness":"FRESH","line1":"1 62821U 25018R   26145.19558168  .00017376  00000+0  59733-3 0  9999","line2":"2 62821  53.1581 314.0966 0001448 104.3509 255.7653 15.30204099 74896","mean_motion":15.30204099,"eccentricity":0.0001448,"inclination_deg":53.1581,"raan_deg":314.0966,"arg_perigee_deg":104.3509,"mean_anomaly_deg":255.7653,"bstar":0.00059733,"rev_number":7489,"period_min":94.105093623854,"perigee_km":474.21046696403,"apogee_km":476.19519417896,"semimajor_km":6853.3398305715,"source":"CELESTRAK","updated_at":"2026-05-25T13:38:19.776171Z"}}}